This demonstration page uses our WeatherBlox Daily Observations layout. Learn more.

Left ArrowRight Arrow

41.55636, -103.73856

Hourly Observations for December 27, 2018

Temp ( °F °C ) Dew Point ( °F °C ) Humidity (%) Winds ( mph kmh ) Pressure ( in mb ) Visibility ( mi km ) Precip ( " mm )
5:58 pm 17:58 Partly Cloudy 24 -4.4 19 -7.3 80 80 NNW 23 37 29.98 1015 10 16 N/A
6:58 pm 18:58 Clear 22 -5.3 17 -8.3 80 80 N 24 39 29.97 1015 10 16 N/A
7:58 pm 19:58 Clear 20 -6.6 16 -8.8 85 85 N 17 28 29.98 1015 10 16 N/A
8:58 pm 20:58 Clear 18 -8 16 -9 93 93 N 16 26 30.00 1016 10 16 N/A
9:58 pm 21:58 Mostly Clear 18 -8 16 -9 93 93 N 18 30 30.00 1016 10 16 N/A
10:58 pm 22:58 Clear 18 -7.9 15 -9.5 88 88 NNW 21 33 29.97 1015 10 16 N/A
11:58 pm 23:58 Mostly Clear 18 -8 14 -9.8 87 87 N 26 43 29.93 1013 10 16 N/A
12:58 am 00:58 Mostly Clear 18 -8 14 -10 86 86 NNW 24 39 29.96 1014 10 16 N/A
1:58 am 01:58 Cloudy 18 -8 14 -10 86 86 NNW 28 44 29.93 1013 10 16 N/A
2:58 am 02:58 Cloudy 18 -7.9 14 -10 85 85 NNW 24 39 29.93 1013 10 16 N/A
3:58 am 03:58 Windy with Snow Showers Likely 17 -8.1 14 -9.8 88 88 NNW 24 39 29.91 1013 10 16 N/A
4:58 am 04:58 Cloudy 17 -8.4 13 -10.4 86 86 NNW 28 44 29.91 1013 10 16 N/A
5:58 am 05:58 Windy with Snow Likely 17 -8.2 14 -10.2 86 86 NNW 26 43 29.93 1014 10 16 N/A
6:56 am 06:56 Windy with Snow Showers Likely 17 -8.4 13 -10.7 84 84 NNW 26 43 29.95 1014 10 16 N/A
7:58 am 07:58 Windy with Snow Likely 17 -8.3 12 -11.1 80 80 NNW 25 41 29.93 1014 10 16 N/A
8:58 am 08:58 Windy with Snow Likely 18 -8 12 -11 79 79 NNW 28 44 29.96 1015 10 16 N/A
9:58 am 09:58 Windy with Snow Likely 18 -8 14 -10 86 86 N 23 37 29.99 1016 3 5 N/A
10:58 am 10:58 Windy with Snow Likely 18 -7.8 12 -11 78 78 N 26 43 29.99 1016 10 16 N/A
2:56 pm 14:56 Windy with Snow Likely 19 -7.1 12 -10.9 75 75 NNW 24 39 30.01 1016 6 10 N/A
3:58 pm 15:58 Windy with Snow Likely 19 -7.4 12 -10.9 76 76 NNW 21 33 30.04 1017 8 13 N/A
4:58 pm 16:58 Mostly Cloudy with Light Snow 18 -7.9 12 -11 79 79 NNW 28 44 30.04 1017 9 14 N/A

Powered by AerisWeather